Location: *
(38.9555°S, 57.3572°E)
Time: 01:44:04
(UTC+00:00)

Cosmos 990 Rocket - Pass Details

Date: 15 July 2020
Orbit: 747 x 768 km, 74.0° (Epoch: 06 August)

Event Time Altitude Azimuth Distance (km) Brightness Sun altitude
Rises 14:56:43 0° 343° (NNW) 3,184 7.6 -20.8°
Reaches altitude 10° 14:59:03 10° 342° (NNW) 2,269 6.8 -21.2°
Maximum altitude 15:04:12 88° 255° (WSW) 765 3.9 -22.2°
Enters shadow 15:06:51 30° 163° (SSE) 1,340 5.0 -22.7°
